Location: Jackson Park
(37.2862°N, 79.9123°W)
Time: 23:27:30
(UTC+00:00)

Explorer 11/Cluster Stage 4 - Pass Details

Date: 16 May 2026
Orbit: 463 x 1173 km, 28.8° (Epoch: 5 June)

Event Time Altitude Azimuth Distance (km) Brightness Sun altitude
Rises 02:25:31 0° 228° (SW) 3,994 10.2 -20.8°
Reaches altitude 10° 02:28:56 10° 216° (SW) 2,976 9.4 -21.3°
Enters shadow 02:32:53 23° 188° (S) 2,076 8.4 -21.8°
Maximum altitude 02:34:49 26° 164° (SSE) 1,897 - -22.0°
Drops below altitude 10° 02:40:04 10° 110° (ESE) 2,636 - -22.7°
Sets 02:42:54 0° 98° (E) 3,458 - -23.1°
